Flag for U.S.A. Weather past 2 weeks in Rochester, New York, U.S.A.

Now
2 °F

Passing clouds.


Feels Like: -12 °F
Forecast: 5 / 11 °F
Wind: 8 mph from West

Location: Greater Rochester International Airport

Current Time: Feb 27, 2015 at 7:32:29 AM

Latest Report: Feb 27, 2015 at 6:54 AM


Visibility: 10 mi

Pressure: 30.42 "Hg

Humidity: 80%

Dew point: -3 °F

Location of RochesterLocation

Historic Weather in Rochester — Graph

°F

Rochester temperature yesterday

Maximum temperature yesterday: 15 °F (at 9:54 AM)
Minimum temperature yesterday: 9 °F (at 9:54 PM)
Average temperature yesterday: 12 °F

Past Weeks' High & Low Weather Summary

 TemperatureHumidityPressure
High29 °F (Feb 22, 2:54 PM)92% (Feb 22, 7:54 AM)30.55 "Hg (Feb 22, 7:54 AM)
Low-11 °F (Feb 20, 11:54 PM)24% (Feb 24, 2:54 PM)29.52 "Hg (Feb 14, 1:54 PM)
Average9 °F67%30.09 "Hg
* Reported Feb 12 5:56 AM — Feb 27 5:54 AM, Rochester, Weather by CustomWeather, © 2015

Note: Actual official high and low records may vary slightly from our data, if they occured in-between our weather recording intervals... More about our weather records

Advertising

Rochester weather history for previous 24 hours

 ConditionsComfort  
Time TempWeatherWind HumidityBarometerVisibility
5:54 AM
Fri, Feb 27
2 °FPassing clouds.8 mph83%30.39 "Hg10 mi
4:54 AM3 °FClear.7 mph84%30.36 "Hg10 mi
3:54 AM6 °FPassing clouds.6 mph83%30.34 "Hg10 mi
2:54 AM8 °FPassing clouds.6 mph79%30.33 "Hg9 mi
1:54 AM9 °FLight snow. Ice fog.6 mph84%30.32 "Hg4 mi
12:54 AM10 °FLight snow. Mostly cloudy.7 mph80%30.29 "Hg5 mi
11:54 PM
Thu, Feb 26
9 °FLight snow. Mostly cloudy.7 mph84%30.28 "Hg7 mi
10:54 PM9 °FLight snow. Mostly cloudy.6 mph84%30.27 "Hg9 mi
9:54 PM9 °FLight snow. Passing clouds.6 mph84%30.27 "Hg9 mi
8:54 PM10 °FLight snow. Passing clouds.3 mph84%30.24 "Hg9 mi
8:01 PM10 °FLight snow. Ice fog.3 mph84%30.18 "Hg3 mi
6:54 PM11 °FLight snow. Overcast.5 mph77%30.20 "Hg6 mi
5:57 PM12 °FLight snow. Overcast.8 mph73%30.13 "Hg2 mi
4:54 PM12 °FLight snow. Mostly cloudy.9 mph70%30.16 "Hg1 mi
3:54 PM14 °FOvercast.8 mph56%30.15 "Hg10 mi
2:54 PM13 °FOvercast.10 mph59%30.13 "Hg10 mi
1:54 PM14 °FOvercast.14 mph61%30.12 "Hg10 mi
12:54 PM14 °FCloudy.14 mph61%30.12 "Hg10 mi
11:54 AM14 °FMostly cloudy.9 mph58%30.13 "Hg10 mi
10:54 AM13 °FOvercast.8 mph64%30.13 "Hg10 mi
9:54 AM15 °FCloudy.No wind58%30.13 "Hg10 mi
8:54 AM13 °FMore clouds than sun.No wind61%30.14 "Hg10 mi
7:54 AM11 °FOvercast.No wind67%30.13 "Hg10 mi
Weather by CustomWeather, © 2015

See weather overviewHow to use our weather pages